Wind_Speed
85 86 86 87 85 82 77 73 70 66 63 61 61 60 58 57 55 53 53 53 51 51 52 53 53 53 53 53 53 54 55 56 56 56 59 64 71 79 86 92 96 99 99 98 99 98 96 98 101 105 107 107 101 95 92 90 90 92 93 91 92 92 89 86 83 79 75 72 72 71 69 68 66 63 60 58 56 55 53 50 47 45 46 48 48 49 44
86 87 88 87 84 79 74 70 67 64 60 57 55 55 54 53 53 51 49 48 47 47 47 48 49 49 49 49 48 49 51 53 54 53 54 58 65 74 81 89 95 99 99 100 101 100 98 100 103 105 107 105 100 93 89 88 88 89 90 90 92 93 91 87 83 80 79 78 75 73 71 67 62 61 59 57 58 58 56 53 50 48 50 50 51 51 44
88 89 88 85 81 76 71 67 64 61 59 56 53 51 50 49 48 49 48 46 45 44 44 44 45 45 46 46 45 45 46 49 51 51 51 55 60 68 76 84 93 98 100 101 102 102 101 103 104 104 106 104 98 92 89 88 88 86 86 89 92 92 89 85 83 83 82 78 74 72 70 65 62 62 61 59 60 60 58 55 51 50 51 51 53 53 43
89 89 87 83 79 74 70 65 61 57 55 54 52 50 49 48 46 46 46 46 45 43 42 42 42 42 42 42 43 42 42 44 47 48 49 52 57 63 71 79 88 95 98 101 103 103 104 106 105 103 104 102 95 90 88 88 88 85 85 89 91 90 88 85 84 84 84 80 77 76 76 71 67 65 65 63 63 61 60 57 53 52 52 52 56 55 45
90 89 85 81 76 72 68 63 59 55 52 51 50 49 48 48 48 46 45 45 44 43 42 41 40 39 39 39 40 40 39 41 44 46 47 50 54 59 66 74 83 90 95 100 104 105 107 108 105 103 103 99 92 89 89 89 87 85 86 89 90 90 88 86 84 84 85 83 80 80 79 75 70 68 67 66 65 63 61 59 55 55 55 55 57 56 50
91 88 83 78 73 68 65 61 58 55 52 50 49 48 47 46 47 46 45 44 42 41 40 40 38 38 37 36 36 37 37 38 41 43 45 48 51 56 63 70 78 85 91 97 103 107 109 108 106 104 102 96 89 88 90 88 86 87 89 90 90 90 89 87 85 86 87 85 81 80 78 75 72 70 68 68 68 65 62 61 60 57 57 58 60 59 54
90 86 80 74 69 64 60 57 56 55 53 52 50 48 47 46 45 45 45 43 41 39 38 38 35 35 35 33 33 34 33 34 37 40 42 45 48 53 59 66 73 81 86 92 100 107 109 108 107 106 101 94 89 90 90 88 87 89 92 91 89 88 86 86 87 89 90 87 83 80 78 75 74 74 72 70 68 66 64 65 64 60 59 61 62 60 56
88 83 76 70 65 60 57 55 54 54 54 53 52 50 48 47 46 44 44 43 39 36 37 35 32 32 32 30 31 33 31 30 33 37 39 42 46 50 56 62 69 76 82 88 96 103 106 106 106 107 101 93 91 91 91 89 88 90 93 92 88 85 86 88 90 91 91 88 84 82 81 79 77 75 72 69 68 68 67 68 67 64 63 63 64 63 60
85 79 73 67 61 57 55 53 52 52 52 52 52 51 49 47 46 44 42 41 38 35 35 33 29 29 29 27 27 30 30 28 30 33 36 39 43 47 53 59 66 72 78 84 92 99 103 103 105 106 101 93 92 92 92 91 90 90 92 91 87 86 88 91 93 92 90 87 84 83 84 82 78 75 72 70 68 69 69 68 67 65 65 66 67 65 62
82 75 69 63 59 55 53 52 51 50 50 50 51 50 48 47 46 44 42 40 36 33 33 31 27 26 26 24 24 27 28 26 27 30 33 37 40 44 50 56 63 69 75 80 87 93 98 100 103 105 101 94 92 94 94 93 92 90 91 89 87 88 90 91 91 90 89 88 86 85 85 83 79 77 75 72 70 70 71 71 69 68 67 67 68 66 64
78 72 66 60 56 53 52 52 51 50 49 49 49 49 47 46 46 44 41 38 35 33 32 30 27 26 24 21 22 24 25 24 24 26 30 33 37 41 47 53 59 65 70 75 81 87 92 97 100 103 101 95 93 95 97 96 93 91 90 89 89 90 90 90 89 88 89 90 90 90 88 84 82 81 78 75 74 74 75 73 71 70 70 70 70 69 69
75 69 63 58 55 53 52 51 51 50 49 49 49 48 48 46 45 42 39 37 35 33 32 30 27 26 24 20 19 21 23 21 21 23 26 31 35 38 44 50 55 61 66 71 76 80 87 93 97 101 101 96 94 98 99 97 95 93 91 91 91 90 89 89 88 88 91 93 94 93 88 84 84 83 80 78 76 74 75 76 75 75 75 74 75 74 72
72 66 60 56 53 52 51 50 49 48 48 48 48 48 47 46 44 41 38 36 34 32 31 29 26 24 23 20 18 18 19 19 19 20 23 28 32 36 41 46 52 57 61 66 71 75 81 88 93 97 99 97 96 99 100 97 96 95 92 91 91 90 90 90 89 90 94 96 96 92 86 85 87 85 83 82 80 78 80 81 79 79 78 76 75 73 69
70 63 58 54 52 50 48 47 47 47 47 47 47 46 47 46 43 41 39 37 34 31 29 28 26 23 22 20 18 17 17 16 16 18 20 25 29 33 37 43 47 52 56 61 66 71 76 83 88 93 97 98 97 98 98 98 97 96 92 90 90 92 93 92 92 94 95 96 94 89 87 89 89 87 86 85 82 82 83 81 80 80 78 74 74 73 70
67 61 56 52 50 48 46 45 46 45 45 46 45 46 46 46 44 41 39 37 36 33 31 29 27 24 21 19 18 17 16 15 14 14 17 22 26 30 34 39 44 48 52 57 62 67 72 78 85 90 95 99 99 97 98 99 100 98 94 91 91 93 95 94 94 95 95 95 94 92 92 91 88 86 88 86 83 83 83 80 81 82 80 76 76 75 74
64 58 54 51 48 46 44 43 43 43 44 44 45 46 48 47 46 43 40 38 37 35 33 31 29 25 22 20 18 16 15 14 12 12 15 19 23 27 31 35 40 44 49 53 58 63 68 73 81 87 93 97 99 98 99 101 102 102 100 96 94 94 95 95 94 95 95 94 94 94 92 90 88 89 91 89 86 87 85 82 84 86 83 79 77 76 76
61 56 52 49 47 44 42 41 41 42 42 44 45 47 48 49 47 45 43 41 39 36 34 32 30 27 24 21 18 16 14 12 11 11 13 16 19 23 26 31 36 40 45 49 54 59 64 69 76 84 90 94 98 100 101 103 105 106 105 102 98 96 96 95 94 95 95 94 95 95 93 91 92 95 95 92 90 89 88 87 88 88 83 79 76 75 76
58 53 50 48 45 42 40 39 40 41 42 45 47 48 49 51 51 48 47 45 42 39 36 34 32 29 26 23 20 17 14 11 9 9 10 13 16 19 22 26 31 36 40 44 49 54 59 65 72 80 86 91 96 100 102 105 108 109 108 106 102 99 97 95 94 95 96 95 97 98 97 96 96 98 98 95 92 92 92 91 90 86 82 80 78 76 75
55 50 48 45 42 40 38 38 39 41 44 47 48 49 50 53 53 51 49 47 45 42 39 36 34 31 28 25 22 18 15 11 8 7 8 11 13 16 20 23 27 32 36 41 46 51 56 62 68 75 82 88 93 98 102 105 109 111 110 107 104 100 98 96 95 96 97 97 99 100 99 98 97 97 97 94 92 94 94 90 87 84 81 80 80 78 75
52 48 45 43 40 38 37 37 39 42 45 48 49 49 51 53 53 53 51 49 47 44 41 38 35 32 29 26 23 19 15 12 9 6 6 8 11 13 17 20 24 28 33 38 42 47 52 58 64 71 78 83 89 96 102 106 110 112 111 109 105 101 99 97 97 97 98 98 100 101 101 99 97 95 94 92 92 94 92 88 86 83 80 79 79 78 76
49 45 42 40 37 36 36 37 40 43 45 47 48 49 50 52 52 52 52 50 48 46 42 39 36 33 31 28 25 21 17 14 10 6 4 4 7 10 14 17 21 25 30 34 38 43 49 54 60 66 72 78 85 94 101 106 110 112 112 111 108 104 101 99 99 99 100 100 101 102 101 99 97 95 94 93 93 93 92 90 88 84 81 80 79 78 77
46 42 40 37 35 34 35 37 40 42 45 46 48 49 49 50 50 50 51 50 49 47 44 41 38 35 32 29 27 24 20 16 13 9 4 1 4 7 11 14 18 23 27 31 36 40 45 50 55 61 68 75 82 91 99 105 110 112 112 113 111 107 104 101 100 101 101 102 103 102 101 99 98 96 95 94 92 91 91 90 88 84 82 81 81 80 78
43 39 37 35 33 33 34 36 39 41 43 45 47 47 48 48 48 49 49 48 48 47 45 42 39 36 34 31 29 25 22 19 16 11 7 3 1 5 9 12 16 20 25 29 33 37 42 46 50 56 63 70 77 86 95 103 108 111 112 113 113 110 106 104 103 102 101 101 102 101 100 100 98 95 94 92 89 88 90 90 89 87 84 83 82 82 80
39 37 35 32 31 31 32 34 37 40 43 44 45 45 46 46 46 47 47 47 46 46 44 42 39 37 35 33 31 28 24 21 18 13 9 6 2 3 6 10 14 18 22 25 30 34 39 44 48 54 60 66 72 81 90 98 104 109 111 113 113 112 109 105 104 103 102 102 102 100 100 100 97 93 91 90 88 87 89 91 91 90 86 84 84 83 81
36 34 32 30 28 29 31 33 35 39 41 42 43 43 44 44 44 44 45 45 45 45 44 42 40 37 36 34 32 30 28 24 20 15 11 8 5 3 5 8 11 15 19 23 27 31 36 41 46 51 56 61 67 74 83 92 99 105 109 112 113 112 110 107 104 102 101 100 100 100 99 98 94 91 90 91 89 87 89 91 92 91 88 85 85 84 83
33 31 29 27 26 27 29 31 34 38 39 40 41 42 42 42 42 43 43 43 43 43 43 42 41 39 37 35 33 31 29 26 23 19 15 11 8 5 4 6 9 13 16 19 23 28 32 37 42 48 52 56 62 69 76 85 94 101 105 109 112 112 111 108 105 102 100 98 98 97 96 95 92 91 91 92 90 88 88 91 92 91 89 87 86 86 85
31 28 27 26 24 25 27 30 33 35 37 38 40 40 40 40 40 41 41 41 41 41 41 41 41 40 39 37 34 32 30 29 26 23 19 15 11 8 5 5 7 10 13 17 20 24 29 33 38 43 48 53 58 64 70 78 88 95 101 105 109 112 112 109 107 104 101 99 98 97 95 94 93 93 93 92 90 89 90 91 93 93 91 90 89 88 87
28 26 24 23 22 23 25 28 31 33 35 37 38 39 38 38 38 39 39 39 40 40 40 40 41 41 41 39 37 35 33 31 29 26 23 19 16 12 8 6 5 7 10 14 18 22 26 30 34 39 43 48 54 60 66 72 81 90 97 101 106 109 111 109 107 104 102 100 99 95 91 89 89 89 88 87 87 88 89 90 91 92 92 91 90 89 87
25 23 21 21 21 21 22 25 28 30 32 34 35 36 36 37 37 36 36 36 37 38 39 39 40 41 41 40 39 39 37 34 31 28 26 22 19 16 13 9 6 5 8 11 15 18 22 27 31 35 40 44 49 55 61 67 76 86 94 100 104 107 109 109 106 103 101 100 98 93 89 86 85 85 83 82 82 84 86 87 88 90 91 91 90 89 88
22 20 19 19 19 20 20 22 24 27 29 30 32 34 35 35 34 33 32 32 33 35 36 36 37 38 38 39 40 40 40 38 35 32 29 26 22 19 16 13 9 6 5 8 11 15 19 23 27 31 36 41 45 51 56 62 70 80 90 97 102 104 107 107 106 103 101 100 97 92 88 85 85 84 83 82 83 85 87 89 89 90 91 91 91 90 90
19 16 16 17 17 18 19 19 19 22 25 27 28 31 33 34 33 31 30 30 31 32 32 32 33 34 34 36 38 40 41 40 38 36 34 31 27 24 20 17 14 10 7 5 7 11 15 19 23 27 32 37 42 47 52 57 64 73 83 92 98 102 104 106 105 102 101 99 96 91 87 84 83 83 83 83 84 85 87 89 90 90 91 91 91 91 91
17 14 13 14 15 15 15 16 16 17 19 22 24 26 30 32 31 30 29 29 29 29 28 29 29 30 30 31 34 37 39 39 38 37 36 34 32 29 25 21 18 14 11 7 5 7 10 14 19 24 28 33 37 42 47 53 59 66 75 84 93 99 102 104 104 103 101 99 96 91 87 84 84 83 83 82 83 83 85 87 88 88 88 89 90 91 92
15 12 12 13 14 12 12 13 13 13 14 17 20 23 26 28 29 28 27 27 27 27 27 27 27 27 27 29 31 33 35 37 37 36 36 35 34 32 29 27 23 19 15 11 8 6 6 9 14 19 23 28 33 37 42 48 53 60 68 76 85 93 99 102 103 104 104 102 98 94 91 90 88 86 84 83 82 82 84 86 87 87 87 89 91 92 93
14 12 11 12 13 12 11 12 13 13 13 14 16 19 21 24 25 25 24 24 24 25 25 25 25 25 25 27 29 32 34 36 37 36 36 36 34 33 32 31 28 24 20 16 13 10 7 5 8 13 18 23 28 32 37 43 48 54 61 69 77 86 94 99 102 104 104 103 100 97 96 95 92 89 85 83 82 82 84 86 87 87 88 89 91 92 94
14 11 10 10 11 12 13 13 13 14 13 11 12 14 16 19 21 22 22 22 21 22 23 24 25 25 25 26 28 30 32 35 36 35 35 34 34 34 34 34 32 28 24 21 18 15 11 7 6 7 12 17 22 27 32 38 43 49 55 62 70 78 86 94 99 102 103 102 100 98 98 96 93 90 87 85 83 83 84 86 87 87 88 90 92 93 94
15 11 9 7 7 9 12 16 16 15 13 12 11 11 12 14 16 17 18 20 20 19 22 24 24 24 24 23 25 28 29 31 33 33 32 32 32 34 36 36 35 32 29 25 22 20 16 12 8 5 6 11 16 22 27 32 38 43 49 55 63 71 79 88 95 100 102 102 101 101 100 98 95 92 89 86 84 83 84 85 87 87 88 89 92 93 95
17 13 10 8 7 6 9 14 18 18 15 12 12 12 11 10 11 11 13 16 17 17 20 23 24 24 23 20 21 23 25 28 31 31 31 31 30 31 33 35 36 36 34 30 27 25 22 17 12 8 3 6 11 17 22 27 33 38 44 50 57 64 73 81 89 96 100 102 102 102 102 100 97 95 92 89 86 84 84 85 86 87 87 89 91 94 95
19 15 12 10 10 10 8 9 15 19 17 14 13 13 12 10 8 8 10 12 13 14 17 21 23 23 21 18 17 18 20 25 27 28 28 28 27 27 28 30 33 35 35 32 30 29 26 21 17 13 8 2 4 11 17 23 28 33 39 45 51 58 66 74 83 90 97 100 102 103 102 100 99 97 95 92 89 86 85 85 85 86 87 89 91 93 95
19 17 14 13 13 14 13 13 15 18 19 17 14 14 14 12 9 7 8 9 10 11 13 17 19 21 19 17 16 15 15 18 21 22 23 23 23 23 23 24 27 30 31 29 29 30 28 23 20 16 12 8 3 4 10 16 22 27 33 39 45 52 59 67 75 84 91 97 100 101 101 99 98 97 96 94 91 88 86 85 85 85 87 88 90 92 94
21 17 15 15 15 16 18 19 18 18 19 19 16 13 13 13 10 7 7 8 8 9 11 13 15 16 17 16 15 13 11 11 13 16 18 19 19 19 19 18 20 22 23 23 25 26 25 23 21 17 14 10 7 4 4 8 14 20 25 31 38 45 52 60 68 76 84 91 97 100 100 99 98 97 97 96 93 91 89 87 86 85 86 87 88 90 92
22 19 16 16 16 17 19 20 21 21 21 21 19 15 14 14 13 11 10 10 9 9 11 11 10 10 13 14 14 13 10 8 7 9 11 13 15 14 13 13 14 15 15 16 19 21 22 22 20 17 13 11 9 7 5 5 8 13 18 24 31 38 45 52 60 68 76 84 91 96 97 97 97 98 98 98 97 94 91 89 87 86 86 86 86 87 89
22 19 18 17 17 18 18 19 21 22 22 22 21 18 16 16 16 15 13 12 11 9 11 13 11 9 9 11 11 11 10 9 7 5 4 6 8 9 9 8 8 9 9 10 14 17 19 19 17 14 13 11 10 8 7 6 6 8 13 18 24 30 37 44 52 60 68 76 84 90 94 95 96 97 98 99 98 96 93 91 89 87 85 85 85 86 88
22 20 19 17 16 17 18 18 20 21 21 22 22 21 18 17 17 17 17 17 14 13 13 14 13 11 11 10 9 9 10 10 8 7 6 3 2 3 4 3 4 6 7 8 11 14 15 16 15 14 13 13 10 8 7 7 7 7 9 12 17 22 28 35 42 50 58 66 75 82 88 93 95 95 96 97 98 97 95 93 91 89 88 87 87 88 89
23 23 22 20 18 17 17 17 18 19 20 21 22 22 20 19 17 18 19 20 19 17 17 17 15 15 15 14 12 10 11 11 11 10 10 9 7 4 3 2 3 5 7 7 8 11 14 15 15 14 13 14 13 11 8 7 7 7 8 9 11 15 21 27 33 40 47 56 65 74 81 87 91 93 94 95 96 97 97 95 94 92 91 90 90 90 92
22 22 22 21 21 20 18 17 17 16 17 18 20 20 21 20 19 18 19 20 20 20 21 21 20 20 20 19 17 15 14 14 15 16 16 15 13 11 9 8 6 7 8 8 8 10 14 16 16 15 14 14 15 15 13 10 9 9 8 9 10 11 15 20 25 31 37 44 53 62 71 79 86 90 92 94 95 96 97 97 95 94 93 93 93 94 96
22 21 19 18 18 18 18 18 17 17 17 17 17 18 18 19 19 19 19 19 20 21 22 23 23 23 23 23 21 20 19 18 18 18 18 18 18 16 15 13 11 9 10 12 12 13 14 16 17 16 15 15 15 16 14 13 13 12 11 10 10 11 12 15 19 24 29 35 42 50 58 68 77 84 88 91 94 95 96 96 96 96 96 97 98 98 98
23 23 21 20 19 18 17 16 16 16 17 17 17 17 18 18 18 18 18 19 19 21 22 23 23 25 26 25 24 23 22 22 22 21 20 20 20 20 19 18 15 13 13 16 17 16 15 16 17 17 16 16 15 15 14 13 13 14 14 14 13 12 12 14 16 19 22 27 33 39 46 55 64 73 81 87 91 93 94 95 96 97 98 98 99 99 98
26 26 26 25 25 23 22 20 19 18 17 17 17 17 18 18 18 18 18 18 18 19 21 21 22 24 25 26 25 25 25 25 25 25 24 23 23 22 22 21 19 17 16 18 19 18 17 18 18 18 17 17 16 15 14 14 14 14 15 15 16 15 14 14 15 17 19 22 26 31 37 44 51 60 69 78 85 89 92 93 95 97 99 100 100 100 99
27 26 25 24 23 22 22 21 21 20 20 20 20 19 19 19 19 19 19 19 19 19 20 20 20 21 22 24 25 25 26 26 26 27 26 26 26 26 25 24 23 22 20 20 21 21 21 21 20 20 19 19 18 17 17 17 17 16 16 17 18 18 17 16 16 17 18 20 23 27 31 37 42 49 57 66 75 82 88 91 94 97 99 101 102 103 103
24 23 21 20 19 19 19 18 18 18 18 18 18 18 18 19 19 19 19 19 20 20 20 21 21 21 21 21 22 23 24 25 26 26 27 27 28 28 28 28 27 27 25 24 23 24 24 24 23 23 23 22 21 20 20 19 19 19 19 19 19 19 20 19 18 18 19 20 22 24 28 32 37 42 48 56 64 72 80 87 92 95 98 100 102 103 104
24 23 23 23 22 22 22 21 20 20 19 19 19 19 19 19 19 20 20 20 20 21 21 21 22 22 22 22 22 22 23 23 24 25 25 26 27 28 29 30 31 30 29 27 26 27 27 27 27 27 27 26 24 24 23 23 22 21 21 21 20 20 20 20 19 19 20 22 23 25 27 30 33 37 43 48 55 63 71 79 86 92 96 98 100 102 104
27 26 26 26 25 25 24 24 23 23 23 23 22 22 21 21 20 20 20 20 20 20 21 21 22 22 23 23 24 24 23 23 23 24 24 25 26 27 28 30 32 32 32 30 29 29 29 30 30 30 30 29 28 27 27 26 25 24 24 23 23 22 21 21 20 19 20 22 26 28 29 30 32 35 39 44 49 55 62 70 78 85 90 95 99 101 103
Wind_Direction
323 323 322 322 321 320 319 317 316 315 314 312 310 308 306 304 301 298 296 294 291 287 284 281 278 275 272 269 266 263 260 257 252 246 239 235 231 230 229 228 228 229 229 229 230 229 228 227 228 231 233 234 232 230 229 230 230 230 230 228 228 227 226 225 226 228 229 227 226 225 224 222 222 224 224 225 227 228 227 224 223 225 229 232 234 235 234
326 326 325 324 323 322 321 320 319 318 316 314 312 309 307 305 304 302 299 297 294 291 287 284 280 277 274 270 266 262 258 255 252 247 240 234 230 227 226 226 226 227 227 227 228 228 227 227 226 227 230 232 231 229 227 227 227 228 229 229 229 229 228 225 225 226 227 226 226 226 226 224 222 224 225 225 226 228 228 225 222 223 228 231 234 236 232
328 328 327 326 325 325 324 323 322 321 319 317 315 313 311 309 307 306 304 302 298 294 290 286 283 279 275 271 267 262 257 254 251 247 240 234 230 226 225 224 224 225 225 224 225 225 226 226 226 225 227 229 228 226 225 225 225 225 226 229 230 231 230 228 226 226 227 227 227 228 229 226 223 224 225 225 225 227 227 225 221 222 228 232 235 238 232
330 329 328 328 328 327 326 325 324 323 321 320 318 317 316 314 312 311 309 307 304 300 295 290 285 281 276 272 268 263 257 252 249 246 240 234 229 226 223 223 223 224 223 223 224 224 224 225 225 224 225 226 225 224 224 223 223 223 223 226 228 229 229 228 227 227 228 226 224 225 226 224 221 220 223 224 225 225 225 225 221 220 225 229 233 237 232
331 331 331 330 329 328 327 327 327 325 324 322 321 321 320 318 316 315 313 310 308 304 298 293 288 284 279 274 269 264 258 252 248 245 240 234 229 226 223 221 222 223 222 221 222 223 223 224 224 224 224 224 223 223 223 221 221 221 222 223 225 226 227 226 225 226 228 227 224 224 225 225 221 219 220 223 224 223 222 224 221 219 221 225 230 235 233
332 332 333 332 331 330 329 328 328 327 326 325 324 323 322 321 319 317 315 312 310 307 301 295 292 288 283 277 272 265 259 253 248 244 240 234 229 225 223 221 221 222 222 220 220 222 223 223 223 223 222 221 220 221 222 220 218 219 220 221 222 223 224 223 222 223 225 226 224 224 225 225 223 221 220 221 224 223 220 221 221 218 218 222 226 231 232
334 334 334 333 332 331 330 329 329 329 329 328 327 326 326 325 322 320 318 315 313 310 303 298 296 292 287 282 277 270 261 253 248 244 239 234 229 225 223 221 220 221 221 220 219 221 222 221 222 223 221 217 217 219 221 219 217 217 219 219 220 221 222 222 222 221 222 223 222 223 225 225 223 222 220 220 222 223 219 219 220 218 216 220 224 228 230
335 335 334 334 333 332 331 331 331 331 331 330 329 330 330 328 325 324 321 317 317 314 306 303 303 297 291 286 280 274 267 257 249 244 240 234 229 225 223 220 220 220 220 219 219 220 221 221 220 222 220 215 214 217 219 219 217 216 218 218 217 219 220 221 221 222 222 222 221 221 222 224 223 223 222 220 221 222 221 219 219 218 216 218 222 225 226
336 336 335 335 334 334 333 333 334 333 331 330 331 332 333 331 328 327 324 321 321 318 310 309 309 301 295 291 283 276 271 262 251 244 239 235 229 225 223 221 219 219 219 218 218 219 221 220 219 221 219 213 211 214 217 218 217 216 217 217 215 216 219 219 220 221 221 222 221 220 221 223 223 223 222 221 220 222 223 221 219 218 218 218 220 223 225
337 337 337 336 336 335 335 335 334 333 332 332 333 335 336 334 332 331 328 326 326 323 316 315 314 306 300 296 287 279 273 265 254 246 240 235 230 225 223 221 219 219 219 218 218 218 219 219 219 220 218 212 209 212 215 217 217 216 215 215 214 215 217 219 220 220 220 221 221 221 221 221 222 222 221 220 219 219 222 221 219 218 218 220 220 222 224
338 338 338 337 337 337 337 336 335 334 334 336 337 338 338 337 336 335 333 331 331 329 324 323 320 313 308 302 291 281 274 266 255 246 240 236 231 225 223 222 220 219 219 219 218 218 218 218 218 218 217 212 208 210 213 215 216 216 214 213 213 214 215 218 219 219 219 219 219 220 219 219 220 221 220 219 218 216 219 220 219 218 218 219 221 220 222
339 339 339 338 338 339 338 337 337 338 339 340 341 340 340 340 339 339 338 338 338 335 331 329 326 322 316 309 298 286 277 268 256 246 239 235 231 226 223 222 220 219 219 219 218 218 217 217 217 217 217 212 207 208 211 212 214 215 214 212 212 213 214 216 217 218 219 220 220 220 219 218 220 220 219 218 218 216 217 219 219 218 216 217 220 220 220
340 340 340 340 340 340 339 338 340 342 342 342 343 343 342 342 343 343 343 343 342 340 337 334 332 328 322 315 306 294 284 275 262 250 240 235 231 226 223 222 220 219 218 218 218 217 217 216 216 216 215 213 208 207 209 210 213 215 214 212 211 212 213 214 215 216 218 220 220 220 219 218 218 219 219 218 217 216 216 217 218 219 218 217 219 221 220
340 341 341 341 341 341 340 342 344 344 344 345 345 345 345 347 348 349 348 347 346 346 345 341 338 335 329 321 313 304 294 283 269 255 243 236 232 227 223 222 221 218 217 218 217 217 216 216 216 215 214 213 210 207 207 208 211 214 215 212 211 211 212 212 214 215 217 219 220 220 219 218 217 217 218 219 218 217 217 216 217 220 220 217 218 220 220
341 341 341 342 342 343 344 346 347 347 347 348 348 350 351 352 354 354 354 354 353 352 351 349 346 343 337 329 322 314 305 293 277 259 245 236 231 227 222 221 220 218 216 217 217 216 215 215 215 214 213 212 210 207 206 207 209 212 214 213 212 212 212 211 212 214 216 217 219 218 218 219 217 217 218 219 219 219 219 218 217 219 220 218 217 218 219
341 342 342 342 344 346 348 349 350 350 352 353 354 356 357 357 358 358 358 359 359 357 356 354 352 349 345 339 332 325 315 304 289 267 248 237 231 227 222 220 219 217 216 215 215 215 214 213 213 213 213 211 210 207 205 206 207 210 212 213 212 212 213 212 211 213 215 216 217 218 218 218 217 216 217 217 217 219 219 218 218 218 218 218 217 216 218
342 342 342 344 346 349 351 352 354 355 357 360 2 2 2 2 3 3 3 2 2 0 359 358 356 355 352 347 342 336 326 314 299 277 256 242 233 227 223 220 218 217 216 215 214 214 213 212 212 213 212 211 209 207 205 205 206 208 210 212 212 212 212 212 211 213 214 214 216 218 218 217 216 216 216 216 216 218 218 218 219 219 217 217 218 217 218
342 342 343 345 348 351 353 356 358 0 3 7 8 6 6 6 7 7 6 5 4 3 2 2 1 359 357 354 351 347 339 325 307 284 263 248 237 228 222 219 218 217 216 215 214 213 212 211 211 212 212 210 208 207 205 204 205 207 209 211 211 210 211 211 211 212 213 213 215 216 216 216 216 216 216 215 214 216 218 217 218 218 215 215 218 218 218
342 342 343 346 349 353 356 359 3 6 10 12 12 9 9 9 9 9 8 8 6 6 5 4 3 3 2 0 358 355 349 341 328 305 274 251 238 229 222 217 214 214 215 214 213 212 211 210 211 211 211 210 208 207 206 205 205 207 209 211 211 210 209 210 211 212 213 213 214 215 216 216 216 216 216 215 214 216 219 218 218 217 215 214 216 217 218
342 342 344 347 351 355 359 3 8 12 14 15 14 12 11 10 9 9 9 9 9 8 7 7 7 7 6 6 5 3 2 0 352 329 288 254 236 227 222 216 212 211 212 213 212 211 210 210 210 210 210 210 208 206 206 205 205 206 208 210 211 210 209 209 210 211 213 213 214 215 215 215 215 216 216 215 213 215 218 219 218 218 216 214 215 217 218
342 343 345 348 352 357 2 7 12 15 16 16 15 14 12 10 9 9 10 10 10 10 10 10 10 11 11 11 11 11 12 13 10 357 316 257 235 224 219 214 211 210 210 211 211 210 210 210 210 209 210 209 208 207 206 205 206 206 207 209 211 211 209 209 210 211 212 213 214 215 215 215 214 215 215 215 214 214 216 217 218 217 216 215 215 216 217
342 343 345 349 354 359 4 10 14 16 16 16 16 15 12 10 9 9 10 11 11 12 12 13 14 15 15 15 16 16 17 20 20 17 10 298 225 218 214 210 209 208 207 208 208 208 209 210 210 209 209 209 208 207 206 206 206 206 206 208 210 211 210 209 209 210 211 213 213 214 215 215 214 213 214 215 214 213 215 217 218 216 215 215 214 215 216
342 343 346 351 356 0 6 12 15 16 16 16 15 14 13 11 10 10 10 11 12 13 15 15 16 18 19 20 20 21 22 24 25 25 26 29 192 206 206 205 205 206 206 206 207 207 207 208 209 210 210 209 209 208 207 207 206 206 206 207 209 211 211 209 209 210 211 213 214 214 214 215 214 212 213 214 213 212 213 216 218 217 215 214 214 215 215
342 343 347 353 357 1 8 13 15 16 16 15 14 13 13 12 12 12 13 13 13 15 17 18 20 22 23 24 25 25 26 28 29 30 35 42 71 179 194 199 201 203 203 204 205 206 206 205 206 209 211 211 209 209 208 208 207 206 206 207 209 210 211 210 210 210 211 212 213 213 214 215 214 212 212 214 214 212 212 214 217 217 216 214 215 215 215
341 343 349 354 357 2 9 14 16 17 16 14 13 13 13 13 14 15 16 16 16 17 19 20 23 25 26 28 29 30 30 30 31 34 40 50 67 126 167 187 196 199 200 201 203 204 205 205 205 207 209 210 211 210 209 209 208 207 207 207 208 210 211 211 211 211 212 212 213 213 213 214 214 212 212 213 213 212 212 213 216 217 216 214 214 215 215
341 344 349 354 357 3 9 14 17 19 17 15 14 13 13 13 15 17 19 19 20 21 22 23 26 29 31 32 34 35 35 34 34 35 40 48 60 84 128 168 185 192 195 198 201 202 204 205 206 206 207 208 210 211 210 209 209 209 208 208 208 210 211 212 211 211 212 213 214 214 214 214 214 213 212 212 212 212 212 213 214 216 216 215 214 215 215
342 344 350 354 357 3 9 14 18 18 18 18 17 15 13 14 16 19 21 21 23 24 25 26 28 31 34 35 36 37 38 38 37 36 38 43 51 64 86 130 167 182 190 195 198 201 202 203 205 207 207 206 207 210 211 210 210 210 210 210 209 210 211 212 211 211 211 213 215 215 214 213 213 213 211 210 209 210 211 212 213 214 215 215 214 214 215
342 345 350 354 357 1 8 15 17 17 17 19 19 16 15 16 18 21 23 24 25 27 28 29 31 33 35 37 38 39 40 41 41 40 40 41 45 51 64 90 133 166 182 190 195 199 201 202 203 205 207 207 207 208 209 209 210 210 211 211 211 212 212 213 212 211 211 212 215 216 215 214 214 214 212 209 208 210 212 212 212 213 215 215 214 214 214
342 346 350 353 356 360 7 15 17 15 15 18 20 20 19 18 19 23 26 27 29 31 32 33 35 36 37 38 39 40 40 41 41 42 43 43 45 49 54 65 90 135 166 182 191 196 199 202 203 204 205 206 208 208 208 208 208 209 210 211 212 212 213 214 214 213 212 212 214 215 215 215 216 216 214 212 210 211 213 214 214 214 215 216 215 214 214
341 345 347 350 354 358 5 14 17 14 13 15 19 22 23 21 21 24 27 28 29 33 35 36 38 39 40 41 42 42 42 40 40 40 41 42 44 48 52 58 66 86 133 166 183 192 197 200 202 204 204 205 207 208 208 208 208 208 209 211 212 212 213 215 216 215 213 213 214 214 214 214 215 216 215 213 211 210 212 214 214 214 215 216 216 215 215
339 342 344 345 350 357 4 10 14 14 13 13 16 22 25 24 22 24 25 24 26 30 34 36 37 38 40 43 46 46 45 42 41 40 40 40 41 43 47 54 59 67 85 128 166 184 193 197 200 202 204 205 207 208 208 208 209 209 209 210 211 212 213 214 216 216 216 215 215 214 214 214 215 216 215 214 212 211 211 213 214 213 214 215 216 216 216
335 337 337 339 345 354 359 1 6 10 11 9 12 20 26 26 24 24 22 19 21 24 27 30 34 36 38 41 45 48 48 46 44 42 42 42 41 41 43 46 50 56 66 83 120 162 183 193 198 201 203 205 206 208 209 209 209 209 209 210 211 211 212 213 214 216 217 216 215 214 214 215 216 216 216 215 214 212 212 213 214 214 213 214 215 217 217
329 328 330 333 338 345 349 351 351 353 359 5 8 15 24 28 27 25 22 18 17 19 21 23 26 31 34 37 42 47 48 48 46 45 45 44 43 42 43 45 45 48 55 65 79 109 149 181 193 198 202 204 206 208 209 210 210 210 210 210 211 211 211 212 213 214 216 216 215 214 213 215 216 216 215 215 214 213 213 214 214 214 213 214 215 217 217
323 320 323 327 332 337 341 339 331 327 338 358 5 7 18 28 29 25 23 19 14 14 16 16 18 22 29 35 40 44 46 46 45 44 45 46 45 45 45 46 45 46 50 57 65 76 96 141 179 193 200 203 206 207 209 210 211 211 211 211 211 211 211 212 213 213 215 216 215 213 213 214 215 215 215 214 213 213 214 215 215 214 213 214 215 216 217
320 314 314 323 332 334 329 320 312 312 321 338 350 355 7 24 29 26 21 16 11 9 9 10 12 16 22 30 37 42 45 46 44 42 44 46 47 48 48 47 46 46 49 54 59 64 71 89 127 173 193 202 205 207 209 210 211 212 212 212 212 212 212 212 212 213 214 215 215 214 213 213 214 215 215 214 213 213 213 214 215 214 213 214 215 216 217
321 307 298 310 331 333 323 315 310 307 309 313 320 330 348 12 26 29 22 16 11 7 4 4 7 8 12 24 36 40 43 46 45 42 42 44 47 50 52 51 49 49 50 52 57 58 60 66 83 119 173 195 204 207 209 211 211 212 213 213 212 212 212 212 212 213 214 214 215 215 214 213 213 214 215 214 213 213 213 214 215 214 214 214 215 216 217
323 305 288 283 285 298 316 318 311 304 299 296 298 306 320 347 13 26 24 19 15 8 2 0 0 359 2 17 33 39 42 46 45 42 41 41 43 49 54 55 54 53 51 52 56 56 53 54 59 69 109 185 201 206 208 210 211 212 213 213 213 213 213 213 213 213 213 214 214 215 214 213 212 213 214 214 214 213 213 214 215 215 214 215 216 217 217
326 310 292 278 272 276 287 297 299 300 298 290 284 288 295 313 343 6 10 13 15 8 359 356 354 352 355 7 19 29 42 49 47 44 43 41 40 44 52 57 60 59 55 54 56 57 52 48 50 51 50 61 203 208 210 211 212 213 214 214 213 213 213 213 213 213 213 214 214 215 215 213 212 212 213 214 214 213 213 214 215 215 215 216 216 217 218
331 316 300 283 272 269 269 271 281 295 302 297 285 280 285 296 319 343 347 353 2 356 348 349 350 348 347 353 2 14 37 53 53 50 48 44 40 41 46 54 62 66 63 61 61 61 57 52 50 51 51 52 73 197 211 214 215 216 216 215 215 215 214 214 214 214 214 214 214 215 215 214 212 212 212 213 214 214 213 214 214 215 216 217 217 218 218
337 327 309 293 280 272 271 271 272 281 292 296 293 288 287 292 301 307 310 322 336 335 329 335 345 345 343 345 351 358 13 38 53 57 56 51 45 43 43 47 58 68 73 73 71 71 69 65 59 56 56 61 70 97 175 207 214 217 217 218 217 217 216 216 216 216 215 215 215 215 215 215 213 212 212 213 214 214 214 214 214 215 216 217 218 218 219
339 335 325 309 294 284 279 275 272 273 280 289 294 295 291 288 287 286 286 294 306 316 316 315 320 329 334 337 339 341 344 0 28 51 60 58 53 48 45 49 57 66 75 82 84 84 83 79 72 67 67 71 76 88 116 165 197 209 216 218 219 219 218 217 217 216 217 217 217 216 216 216 214 213 212 213 213 214 214 214 214 215 216 217 218 219 220
339 340 337 328 315 303 295 286 279 279 281 287 292 295 293 287 284 283 285 284 282 286 294 295 297 306 315 317 319 322 324 328 335 348 18 53 61 55 47 51 67 77 83 91 96 95 92 90 89 87 84 84 87 95 109 129 162 191 207 216 219 221 221 220 219 218 218 218 218 218 217 217 216 215 213 213 213 214 214 214 214 215 215 217 218 220 221
342 345 347 343 331 320 311 300 292 287 285 287 290 294 293 288 282 279 280 281 278 276 280 286 292 298 296 287 288 301 306 303 302 305 310 322 30 57 49 53 90 111 115 113 109 106 104 106 109 106 99 94 95 100 112 129 147 166 189 207 216 220 222 221 220 219 219 219 219 219 218 218 218 217 216 214 214 214 214 214 214 214 215 216 217 219 220
345 346 347 346 341 334 326 316 308 301 296 294 294 295 294 292 285 278 276 279 280 278 277 279 280 280 278 275 275 279 282 279 278 281 283 282 278 263 238 222 176 154 153 147 137 133 132 129 129 130 123 114 108 106 111 127 145 157 170 188 204 215 221 222 221 220 219 219 220 220 219 219 219 219 218 217 215 215 215 215 215 215 215 216 217 219 220
348 347 345 343 341 338 336 331 326 320 312 307 304 302 299 297 294 287 281 279 278 276 276 278 277 273 270 271 271 267 261 259 263 271 276 276 271 260 248 241 223 189 178 179 177 168 157 147 144 147 145 133 124 119 118 120 130 143 159 174 186 201 213 219 220 219 219 219 220 220 220 220 220 220 219 219 218 217 216 216 216 216 216 217 218 219 221
353 350 347 343 339 337 335 334 333 332 329 325 321 316 312 308 304 299 293 286 281 278 276 276 276 274 273 274 273 269 262 255 255 260 266 267 264 260 254 249 241 217 195 191 193 187 173 161 157 156 155 150 144 138 134 132 134 138 146 158 170 185 201 212 216 217 217 217 218 219 220 220 221 221 220 220 219 219 218 217 217 217 218 218 219 220 221
352 351 351 350 347 345 341 338 335 333 331 330 328 326 324 321 317 313 308 301 296 290 285 282 279 277 277 278 277 274 270 264 259 257 257 256 256 258 258 253 246 231 212 203 203 199 187 177 172 169 168 166 162 156 153 155 154 150 150 153 158 168 188 204 211 213 214 214 214 215 216 218 220 221 220 220 220 220 219 218 218 219 219 220 221 222 223
356 355 355 352 349 347 345 344 342 340 337 335 333 330 327 325 322 320 317 313 308 302 297 292 286 282 280 279 277 275 272 269 265 263 259 253 250 252 254 251 246 239 228 219 216 211 202 194 190 187 183 180 177 173 173 173 170 163 159 158 159 166 180 196 205 206 208 210 211 211 212 214 216 218 219 220 220 220 220 220 219 220 221 222 223 224 225
1 360 357 352 347 346 345 345 345 345 343 341 338 335 331 328 325 322 320 318 315 311 308 303 298 293 289 285 283 280 276 273 269 266 262 258 254 252 251 248 246 243 240 235 230 223 213 207 204 203 199 194 191 189 186 182 177 172 168 166 168 172 180 191 199 202 202 203 205 208 209 210 211 214 216 217 218 219 220 220 220 220 221 222 223 224 225
2 0 356 352 350 350 350 349 349 349 347 344 341 338 334 331 328 325 323 320 317 314 311 309 306 302 298 294 290 287 283 280 275 270 265 261 258 254 252 250 248 246 244 242 239 234 226 217 212 210 209 207 204 200 195 188 184 181 179 178 177 179 184 190 197 201 201 199 199 202 206 207 208 209 211 213 215 216 218 219 220 221 222 223 224 225 226
2 1 359 358 358 359 358 357 357 356 355 352 350 347 344 340 336 332 329 325 321 317 314 311 309 306 302 299 295 292 288 284 281 276 271 267 262 257 254 252 252 250 248 244 240 238 235 229 222 217 216 213 209 205 202 198 193 190 188 186 184 184 186 190 194 199 201 199 195 195 199 203 205 206 207 209 211 212 214 216 218 220 221 223 224 226 227
3 4 3 3 3 3 2 1 1 0 359 357 355 352 349 346 343 338 332 327 323 319 315 311 308 305 302 299 297 295 291 288 285 281 277 274 269 264 259 255 252 252 251 246 240 237 237 236 232 227 223 218 213 209 207 205 201 197 195 192 190 189 189 190 191 195 200 200 196 193 194 197 200 202 204 205 207 208 210 212 214 216 219 221 223 225 227
Height
10622 10612 10601 10590 10581 10572 10563 10554 10546 10539 10532 10524 10516 10510 10506 10501 10498 10494 10489 10485 10483 10480 10476 10473 10471 10469 10469 10469 10469 10468 10468 10470 10474 10480 10486 10493 10499 10504 10511 10520 10526 10532 10543 10555 10564 10575 10587 10596 10602 10602 10599 10608 10632 10653 10667 10680 10691 10697 10704 10714 10718 10720 10729 10738 10746 10758 10769 10775 10778 10781 10788 10793 10800 10807 10813 10819 10824 10827 10831 10833 10834 10835 10837 10838 10840 10842 10850
10610 10600 10589 10578 10569 10560 10552 10543 10535 10528 10522 10517 10511 10504 10499 10493 10488 10484 10481 10477 10473 10470 10466 10462 10460 10459 10457 10457 10457 10457 10457 10459 10461 10466 10473 10478 10483 10489 10495 10503 10509 10515 10527 10539 10547 10557 10572 10579 10580 10583 10587 10600 10623 10645 10658 10670 10679 10687 10697 10705 10707 10709 10720 10734 10744 10751 10756 10761 10768 10774 10781 10790 10800 10806 10810 10816 10819 10820 10823 10827 10829 10832 10832 10834 10836 10838 10849
10600 10589 10578 10568 10558 10549 10541 10534 10527 10519 10513 10508 10503 10497 10492 10487 10482 10476 10471 10468 10464 10461 10457 10453 10450 10449 10447 10446 10446 10447 10447 10449 10450 10455 10460 10465 10469 10475 10481 10487 10492 10498 10511 10524 10531 10542 10555 10558 10561 10570 10577 10590 10614 10634 10648 10659 10668 10679 10691 10696 10698 10705 10718 10731 10739 10743 10748 10757 10766 10773 10780 10789 10798 10801 10805 10809 10811 10814 10818 10822 10826 10829 10829 10832 10832 10834 10847
10590 10579 10568 10558 10548 10539 10532 10525 10519 10513 10506 10500 10495 10490 10485 10479 10475 10470 10464 10459 10455 10452 10449 10445 10441 10440 10438 10436 10436 10437 10438 10439 10440 10444 10448 10453 10457 10463 10469 10475 10479 10484 10497 10509 10517 10527 10537 10540 10547 10559 10568 10584 10608 10626 10639 10649 10658 10671 10681 10682 10686 10698 10710 10722 10732 10737 10741 10749 10758 10762 10766 10775 10786 10792 10796 10800 10804 10809 10812 10816 10823 10826 10826 10829 10826 10829 10842
10580 10570 10559 10550 10540 10531 10523 10517 10511 10506 10501 10495 10489 10484 10479 10472 10466 10462 10458 10453 10447 10443 10440 10436 10433 10431 10429 10428 10427 10427 10429 10430 10431 10434 10438 10442 10447 10452 10457 10462 10467 10473 10484 10495 10504 10512 10518 10524 10535 10549 10559 10577 10602 10617 10625 10634 10649 10663 10668 10669 10678 10690 10700 10712 10724 10729 10732 10739 10747 10751 10756 10767 10778 10784 10789 10794 10797 10802 10808 10813 10818 10820 10822 10823 10821 10824 10834
10571 10561 10551 10542 10533 10525 10517 10509 10504 10498 10494 10489 10484 10479 10473 10467 10460 10454 10450 10446 10442 10436 10432 10429 10426 10423 10422 10420 10420 10419 10420 10422 10423 10425 10428 10433 10438 10442 10446 10451 10456 10462 10471 10482 10491 10496 10501 10512 10527 10538 10549 10571 10596 10607 10611 10623 10641 10650 10652 10658 10669 10678 10688 10702 10714 10718 10720 10728 10738 10745 10752 10762 10771 10778 10783 10787 10789 10796 10804 10808 10810 10814 10818 10818 10815 10818 10827
10563 10554 10545 10536 10527 10520 10513 10505 10499 10492 10486 10481 10477 10473 10468 10462 10455 10449 10443 10439 10436 10431 10425 10422 10420 10417 10415 10414 10412 10412 10413 10414 10415 10417 10420 10424 10429 10433 10437 10442 10447 10451 10459 10471 10479 10481 10487 10503 10518 10526 10539 10565 10587 10596 10601 10615 10630 10635 10639 10649 10660 10672 10686 10698 10703 10704 10706 10716 10730 10740 10746 10753 10760 10766 10773 10778 10783 10791 10798 10799 10801 10808 10812 10811 10810 10814 10821
10557 10547 10538 10530 10522 10515 10508 10502 10495 10488 10482 10475 10470 10466 10462 10456 10450 10444 10437 10432 10430 10425 10419 10417 10415 10411 10409 10408 10406 10405 10405 10407 10408 10410 10413 10416 10420 10424 10428 10433 10437 10442 10449 10459 10466 10470 10478 10495 10508 10515 10530 10556 10575 10584 10592 10603 10615 10623 10629 10638 10654 10670 10680 10685 10688 10693 10699 10710 10723 10733 10737 10741 10749 10758 10767 10775 10781 10784 10788 10790 10794 10801 10804 10806 10806 10808 10814
10551 10542 10533 10525 10518 10511 10504 10498 10492 10486 10479 10473 10466 10462 10457 10450 10444 10439 10433 10428 10424 10419 10414 10412 10410 10406 10403 10403 10401 10399 10399 10401 10402 10403 10405 10408 10412 10417 10420 10424 10428 10433 10439 10447 10454 10460 10471 10486 10498 10506 10522 10545 10564 10575 10583 10592 10604 10613 10619 10631 10650 10662 10666 10670 10676 10684 10695 10707 10718 10725 10728 10733 10744 10755 10763 10771 10776 10779 10782 10786 10791 10795 10798 10799 10800 10803 10809
10545 10536 10528 10520 10514 10507 10501 10495 10489 10484 10477 10470 10464 10458 10453 10446 10440 10435 10429 10423 10419 10414 10410 10407 10405 10402 10399 10398 10396 10394 10394 10395 10395 10397 10399 10401 10405 10409 10413 10416 10420 10424 10429 10436 10444 10452 10463 10477 10488 10498 10514 10535 10554 10566 10573 10582 10593 10602 10611 10627 10642 10648 10654 10661 10669 10680 10692 10701 10709 10716 10720 10728 10740 10748 10754 10762 10770 10773 10774 10778 10784 10788 10791 10793 10796 10801 10804
10541 10532 10524 10517 10510 10504 10498 10492 10485 10480 10474 10468 10461 10455 10450 10444 10437 10431 10425 10419 10415 10410 10406 10403 10400 10397 10396 10394 10392 10390 10389 10389 10390 10391 10393 10395 10398 10402 10406 10409 10413 10418 10423 10430 10437 10445 10456 10468 10478 10490 10505 10524 10542 10554 10561 10572 10584 10595 10606 10618 10627 10635 10646 10654 10664 10677 10686 10690 10697 10702 10708 10721 10731 10737 10744 10752 10757 10763 10766 10770 10777 10781 10784 10787 10789 10793 10794
10537 10528 10520 10514 10507 10501 10495 10488 10482 10475 10470 10464 10458 10452 10447 10441 10435 10428 10423 10417 10412 10407 10402 10400 10397 10393 10391 10390 10388 10386 10384 10385 10386 10387 10388 10389 10392 10396 10399 10402 10406 10412 10417 10424 10431 10440 10450 10459 10469 10482 10496 10514 10530 10540 10549 10563 10576 10586 10596 10606 10616 10628 10638 10646 10658 10670 10675 10678 10683 10689 10702 10718 10724 10728 10736 10743 10749 10758 10761 10762 10766 10769 10773 10777 10779 10783 10789
10533 10525 10518 10511 10505 10499 10492 10486 10480 10473 10467 10462 10456 10450 10444 10439 10433 10426 10420 10415 10410 10405 10400 10397 10394 10391 10388 10386 10384 10382 10381 10381 10382 10383 10384 10385 10386 10390 10393 10396 10400 10406 10412 10419 10426 10435 10444 10452 10461 10473 10487 10504 10517 10528 10542 10558 10569 10576 10586 10598 10610 10620 10628 10637 10649 10658 10661 10663 10669 10681 10699 10711 10713 10719 10728 10733 10740 10748 10748 10751 10757 10760 10764 10771 10775 10781 10789
10530 10522 10515 10509 10503 10497 10491 10484 10478 10472 10466 10461 10455 10449 10443 10437 10431 10425 10419 10413 10408 10404 10399 10395 10391 10389 10386 10383 10381 10379 10378 10379 10379 10380 10380 10381 10382 10385 10388 10391 10396 10402 10408 10414 10420 10428 10437 10446 10454 10465 10479 10493 10506 10521 10538 10553 10561 10570 10581 10592 10603 10609 10616 10626 10637 10643 10648 10654 10664 10680 10693 10696 10702 10713 10719 10722 10731 10736 10738 10745 10752 10753 10758 10767 10771 10775 10783
10527 10520 10513 10508 10502 10496 10489 10483 10477 10471 10466 10460 10454 10448 10441 10435 10429 10423 10418 10412 10407 10402 10398 10394 10390 10387 10384 10381 10379 10377 10376 10376 10376 10377 10377 10377 10378 10381 10384 10387 10392 10397 10403 10409 10415 10422 10431 10439 10448 10458 10469 10481 10496 10514 10531 10543 10552 10562 10573 10584 10593 10599 10604 10614 10624 10632 10640 10648 10658 10669 10676 10684 10698 10709 10709 10714 10726 10729 10731 10741 10745 10745 10750 10757 10761 10768 10776
10525 10518 10512 10506 10501 10495 10488 10483 10477 10471 10465 10459 10453 10447 10441 10434 10429 10423 10417 10412 10407 10402 10397 10393 10389 10386 10382 10380 10378 10376 10375 10374 10374 10374 10374 10374 10375 10378 10381 10384 10388 10393 10398 10403 10409 10416 10424 10433 10441 10449 10459 10471 10487 10503 10519 10531 10542 10551 10560 10570 10580 10588 10595 10605 10616 10624 10632 10642 10650 10657 10667 10679 10692 10695 10695 10705 10715 10717 10723 10733 10734 10732 10738 10747 10755 10764 10770
10523 10516 10511 10505 10499 10494 10488 10483 10477 10471 10466 10459 10453 10447 10441 10435 10429 10423 10417 10412 10407 10402 10398 10393 10389 10385 10382 10380 10377 10375 10374 10373 10373 10372 10372 10373 10373 10375 10379 10382 10385 10390 10394 10399 10405 10411 10419 10428 10435 10442 10451 10464 10479 10493 10507 10520 10530 10538 10546 10554 10565 10575 10584 10597 10609 10616 10624 10635 10642 10649 10659 10668 10674 10677 10682 10692 10702 10706 10713 10719 10718 10722 10736 10748 10754 10760 10764
10521 10515 10509 10504 10499 10494 10489 10484 10478 10472 10466 10459 10454 10448 10442 10436 10429 10424 10418 10413 10407 10402 10398 10394 10390 10386 10383 10380 10377 10375 10373 10372 10371 10371 10371 10371 10372 10374 10377 10380 10384 10388 10393 10397 10402 10408 10415 10423 10429 10436 10446 10458 10471 10484 10496 10508 10518 10525 10533 10542 10553 10564 10575 10588 10600 10607 10614 10624 10630 10635 10643 10651 10657 10663 10670 10680 10692 10697 10699 10703 10708 10720 10735 10743 10747 10753 10761
10520 10514 10509 10503 10498 10494 10489 10484 10478 10472 10466 10460 10455 10450 10444 10438 10432 10426 10420 10415 10409 10404 10399 10395 10390 10387 10383 10380 10378 10375 10373 10372 10370 10370 10370 10370 10371 10373 10375 10378 10382 10386 10390 10394 10399 10404 10411 10418 10424 10431 10439 10449 10462 10476 10488 10499 10509 10517 10526 10536 10546 10557 10568 10579 10589 10596 10603 10610 10616 10622 10630 10637 10645 10653 10662 10675 10688 10690 10691 10700 10709 10719 10729 10736 10741 10749 10757
10519 10513 10508 10503 10498 10494 10489 10484 10479 10473 10468 10462 10457 10452 10446 10440 10435 10429 10423 10418 10412 10407 10401 10397 10392 10388 10384 10381 10379 10376 10374 10372 10370 10370 10370 10370 10370 10372 10374 10377 10380 10383 10386 10390 10396 10401 10408 10414 10420 10426 10434 10443 10456 10468 10479 10490 10499 10508 10519 10529 10539 10550 10560 10570 10579 10587 10594 10601 10606 10610 10617 10626 10637 10648 10658 10670 10679 10681 10687 10698 10706 10715 10726 10734 10739 10747 10753
10517 10512 10507 10503 10499 10494 10490 10485 10480 10474 10469 10465 10460 10455 10449 10444 10438 10433 10427 10421 10415 10410 10404 10400 10395 10390 10386 10383 10380 10377 10375 10373 10371 10370 10370 10370 10370 10371 10374 10376 10379 10382 10385 10389 10394 10399 10405 10410 10416 10423 10430 10440 10450 10460 10469 10480 10489 10498 10510 10520 10530 10541 10551 10560 10569 10576 10581 10588 10594 10600 10608 10618 10630 10642 10651 10660 10669 10677 10685 10692 10699 10710 10722 10728 10735 10742 10748
10516 10511 10507 10503 10499 10495 10490 10486 10481 10476 10471 10467 10462 10457 10452 10447 10442 10436 10431 10425 10419 10413 10407 10402 10397 10393 10389 10385 10382 10379 10377 10374 10373 10372 10371 10370 10371 10372 10373 10375 10378 10381 10384 10387 10391 10396 10402 10407 10414 10421 10427 10434 10443 10452 10461 10471 10479 10490 10502 10511 10520 10530 10539 10549 10558 10564 10569 10576 10582 10590 10602 10611 10621 10632 10641 10651 10663 10675 10684 10690 10696 10705 10714 10720 10728 10735 10742
10515 10511 10507 10503 10499 10495 10491 10486 10482 10478 10473 10468 10463 10459 10455 10450 10445 10440 10435 10429 10423 10417 10411 10406 10401 10396 10392 10388 10385 10382 10379 10377 10375 10373 10372 10372 10372 10373 10374 10376 10378 10380 10383 10386 10390 10394 10399 10406 10413 10419 10424 10430 10438 10447 10456 10464 10472 10483 10494 10503 10510 10520 10530 10540 10547 10554 10562 10569 10576 10587 10597 10603 10611 10625 10637 10647 10659 10671 10679 10685 10691 10697 10705 10714 10721 10728 10735
10515 10511 10507 10503 10500 10496 10492 10488 10484 10479 10474 10470 10466 10462 10458 10454 10449 10443 10438 10432 10427 10421 10416 10410 10405 10400 10396 10392 10388 10385 10382 10380 10378 10376 10375 10374 10374 10374 10375 10376 10378 10381 10383 10386 10389 10393 10398 10403 10408 10414 10420 10427 10434 10441 10450 10459 10468 10477 10487 10496 10504 10513 10521 10531 10538 10545 10553 10559 10567 10579 10588 10592 10603 10622 10636 10645 10654 10664 10672 10678 10683 10689 10698 10707 10715 10722 10730
10514 10510 10507 10503 10500 10497 10493 10489 10485 10480 10476 10472 10469 10465 10461 10457 10452 10447 10441 10436 10431 10425 10420 10415 10410 10405 10400 10396 10392 10389 10386 10384 10382 10380 10378 10377 10376 10376 10377 10378 10379 10381 10383 10386 10389 10392 10396 10401 10405 10410 10416 10424 10431 10438 10446 10455 10464 10472 10481 10490 10499 10506 10515 10525 10534 10542 10550 10555 10562 10571 10579 10586 10601 10619 10630 10636 10645 10656 10665 10672 10677 10682 10691 10701 10709 10716 10723
10513 10510 10506 10503 10500 10497 10493 10490 10486 10482 10478 10475 10472 10468 10464 10460 10455 10450 10445 10440 10435 10430 10425 10420 10415 10410 10405 10401 10397 10394 10391 10388 10386 10383 10381 10380 10379 10379 10379 10380 10381 10382 10384 10386 10389 10392 10396 10400 10404 10408 10413 10420 10428 10435 10443 10452 10461 10470 10478 10486 10494 10500 10509 10518 10528 10537 10546 10554 10561 10569 10578 10588 10601 10613 10620 10627 10638 10650 10658 10664 10670 10677 10685 10694 10702 10708 10715
10512 10509 10506 10503 10500 10497 10494 10491 10487 10484 10481 10478 10474 10470 10467 10463 10458 10453 10448 10443 10438 10434 10429 10424 10420 10415 10410 10407 10403 10399 10395 10392 10389 10387 10385 10383 10382 10381 10381 10382 10383 10384 10385 10387 10390 10393 10396 10400 10404 10408 10413 10418 10424 10432 10440 10450 10459 10468 10477 10485 10490 10496 10502 10510 10519 10529 10540 10547 10552 10559 10570 10581 10590 10598 10606 10617 10630 10639 10645 10652 10661 10669 10676 10685 10693 10700 10708
10511 10508 10506 10503 10501 10498 10495 10491 10488 10486 10483 10480 10477 10473 10470 10465 10461 10456 10451 10447 10442 10438 10434 10429 10424 10420 10416 10412 10408 10404 10400 10397 10394 10392 10390 10388 10386 10385 10385 10385 10385 10386 10387 10388 10390 10393 10396 10399 10403 10407 10413 10418 10423 10429 10436 10446 10456 10466 10474 10482 10488 10493 10497 10503 10512 10522 10532 10539 10544 10554 10567 10578 10586 10593 10602 10615 10626 10635 10641 10649 10657 10663 10669 10677 10686 10694 10703
10511 10508 10506 10504 10501 10498 10495 10492 10489 10487 10485 10482 10479 10476 10472 10468 10464 10459 10455 10451 10447 10443 10438 10434 10429 10425 10421 10417 10413 10409 10406 10403 10400 10397 10394 10392 10391 10389 10388 10388 10388 10388 10389 10390 10392 10394 10396 10399 10403 10407 10411 10417 10422 10427 10433 10440 10449 10458 10466 10474 10481 10488 10494 10501 10510 10520 10529 10535 10540 10551 10566 10578 10587 10594 10605 10618 10630 10638 10644 10648 10654 10661 10667 10673 10681 10689 10697
10510 10508 10506 10503 10501 10498 10496 10493 10491 10489 10487 10484 10481 10478 10474 10471 10467 10463 10459 10455 10451 10447 10442 10438 10434 10431 10427 10422 10418 10414 10411 10408 10406 10403 10400 10398 10395 10394 10392 10392 10391 10392 10392 10393 10394 10396 10398 10400 10403 10407 10411 10415 10420 10425 10430 10437 10444 10451 10458 10465 10474 10483 10491 10499 10507 10517 10525 10531 10538 10549 10562 10573 10581 10589 10599 10610 10620 10627 10632 10638 10645 10653 10660 10666 10675 10683 10689
10509 10507 10505 10503 10501 10498 10496 10494 10492 10490 10488 10485 10483 10480 10477 10473 10470 10466 10462 10459 10455 10450 10447 10443 10439 10436 10431 10427 10423 10420 10416 10414 10411 10408 10405 10403 10401 10399 10397 10396 10395 10395 10395 10396 10397 10398 10400 10402 10404 10407 10411 10415 10419 10423 10428 10433 10439 10445 10452 10459 10468 10478 10486 10495 10504 10514 10522 10529 10537 10548 10561 10570 10577 10584 10592 10601 10609 10616 10623 10630 10637 10644 10652 10661 10670 10677 10682
10508 10506 10505 10503 10501 10498 10496 10495 10493 10491 10489 10487 10484 10482 10478 10475 10472 10468 10465 10462 10458 10455 10451 10447 10443 10440 10436 10432 10428 10424 10421 10419 10416 10414 10411 10408 10405 10404 10402 10400 10399 10399 10398 10398 10399 10400 10402 10403 10406 10408 10411 10414 10418 10422 10426 10431 10436 10441 10447 10454 10462 10471 10480 10489 10500 10510 10518 10526 10536 10549 10561 10568 10572 10578 10585 10594 10602 10611 10619 10626 10632 10640 10650 10659 10665 10670 10675
10507 10505 10504 10502 10500 10498 10496 10495 10493 10492 10490 10488 10485 10482 10479 10476 10473 10471 10468 10465 10462 10458 10455 10451 10447 10444 10440 10437 10433 10429 10426 10423 10421 10418 10415 10412 10410 10408 10406 10404 10403 10403 10402 10402 10402 10402 10404 10405 10407 10409 10412 10414 10417 10421 10425 10429 10434 10439 10444 10450 10457 10465 10473 10482 10491 10500 10508 10517 10528 10541 10552 10557 10561 10568 10576 10585 10595 10605 10614 10620 10627 10635 10644 10651 10656 10661 10667
10505 10504 10503 10501 10499 10498 10496 10494 10493 10492 10490 10488 10485 10483 10480 10477 10474 10472 10470 10468 10464 10461 10458 10455 10452 10448 10444 10441 10437 10434 10430 10428 10425 10422 10419 10417 10415 10413 10410 10408 10407 10406 10406 10405 10405 10405 10406 10407 10408 10410 10412 10415 10417 10421 10424 10427 10432 10436 10441 10447 10453 10460 10468 10476 10484 10492 10499 10507 10518 10530 10538 10543 10549 10559 10569 10577 10587 10597 10605 10611 10618 10627 10635 10642 10648 10652 10657
10504 10502 10502 10500 10499 10497 10495 10494 10492 10491 10490 10487 10485 10483 10481 10478 10475 10473 10471 10469 10466 10464 10460 10458 10455 10451 10448 10445 10441 10438 10435 10433 10430 10428 10425 10422 10420 10417 10414 10412 10411 10410 10409 10409 10408 10408 10408 10409 10410 10412 10413 10415 10417 10420 10423 10426 10430 10434 10438 10444 10449 10456 10463 10470 10477 10484 10492 10502 10513 10523 10529 10536 10544 10554 10561 10569 10578 10587 10594 10601 10609 10617 10625 10633 10638 10642 10648
10502 10501 10500 10499 10498 10497 10495 10493 10491 10489 10488 10487 10485 10483 10481 10478 10475 10473 10472 10470 10468 10465 10463 10460 10457 10454 10451 10448 10445 10442 10439 10437 10435 10433 10430 10427 10425 10422 10419 10417 10416 10414 10413 10412 10412 10411 10412 10412 10413 10413 10415 10416 10417 10419 10422 10425 10428 10431 10435 10440 10445 10451 10457 10463 10470 10477 10485 10495 10505 10512 10518 10528 10538 10546 10553 10561 10570 10579 10587 10594 10600 10608 10617 10624 10629 10634 10640
10501 10499 10498 10497 10496 10495 10494 10492 10489 10487 10486 10486 10484 10483 10481 10478 10476 10474 10472 10470 10468 10467 10465 10463 10460 10458 10455 10452 10448 10446 10443 10440 10438 10436 10434 10432 10429 10427 10424 10422 10421 10419 10418 10417 10416 10415 10416 10416 10416 10416 10417 10417 10418 10419 10421 10423 10425 10428 10432 10436 10441 10446 10451 10457 10463 10470 10477 10486 10493 10499 10507 10518 10529 10537 10545 10553 10561 10570 10578 10585 10592 10600 10608 10615 10620 10625 10631
10499 10497 10496 10496 10494 10493 10492 10491 10488 10485 10484 10484 10483 10482 10480 10478 10476 10474 10472 10470 10468 10467 10465 10464 10462 10460 10458 10455 10452 10449 10446 10443 10441 10440 10438 10436 10434 10432 10430 10428 10425 10423 10423 10423 10421 10419 10419 10419 10419 10419 10420 10420 10420 10421 10421 10423 10424 10427 10429 10433 10437 10442 10447 10452 10457 10463 10470 10478 10484 10490 10499 10510 10520 10528 10537 10544 10553 10562 10570 10578 10584 10592 10599 10605 10610 10616 10622
10498 10496 10494 10493 10492 10491 10490 10488 10486 10484 10482 10481 10480 10480 10479 10477 10476 10474 10473 10470 10468 10467 10465 10464 10463 10462 10460 10457 10455 10452 10448 10446 10444 10443 10441 10439 10438 10436 10434 10433 10429 10427 10427 10427 10425 10422 10423 10423 10422 10422 10422 10422 10422 10422 10423 10424 10425 10427 10429 10432 10435 10439 10443 10447 10452 10458 10464 10471 10477 10484 10494 10504 10514 10523 10531 10538 10546 10555 10562 10569 10577 10584 10590 10596 10602 10608 10614
10497 10494 10493 10491 10490 10489 10487 10486 10485 10483 10480 10478 10478 10478 10477 10476 10475 10474 10473 10471 10469 10467 10465 10463 10462 10462 10460 10458 10456 10454 10451 10449 10446 10445 10444 10442 10441 10439 10438 10436 10434 10432 10431 10430 10428 10426 10425 10425 10425 10424 10424 10423 10423 10423 10424 10425 10426 10427 10429 10430 10433 10436 10439 10443 10448 10453 10459 10465 10471 10478 10486 10496 10507 10517 10525 10531 10538 10546 10553 10561 10569 10576 10582 10588 10594 10601 10608
10495 10493 10491 10489 10488 10486 10485 10484 10482 10481 10479 10477 10476 10475 10475 10474 10473 10473 10471 10469 10468 10467 10465 10463 10462 10461 10460 10458 10457 10455 10453 10451 10448 10447 10445 10444 10442 10441 10440 10439 10437 10436 10434 10433 10430 10428 10426 10426 10426 10426 10426 10425 10424 10424 10424 10424 10425 10426 10428 10429 10430 10433 10436 10440 10444 10449 10454 10460 10466 10473 10481 10490 10499 10507 10514 10521 10528 10536 10544 10553 10561 10568 10574 10581 10589 10595 10601
10494 10492 10489 10487 10485 10483 10482 10481 10480 10478 10477 10475 10474 10473 10472 10471 10471 10471 10470 10468 10466 10465 10464 10462 10461 10460 10458 10457 10456 10455 10453 10451 10449 10448 10446 10445 10444 10443 10442 10441 10439 10438 10437 10435 10433 10430 10428 10427 10428 10428 10427 10426 10425 10425 10424 10425 10425 10426 10426 10427 10429 10431 10434 10437 10441 10445 10450 10455 10461 10467 10476 10484 10491 10498 10506 10514 10521 10529 10538 10547 10554 10561 10569 10576 10582 10587 10591
10492 10490 10488 10486 10484 10482 10480 10479 10477 10476 10475 10473 10472 10471 10470 10469 10469 10469 10468 10466 10464 10463 10461 10460 10459 10459 10457 10455 10454 10454 10453 10451 10449 10448 10446 10446 10444 10443 10443 10442 10440 10439 10438 10436 10434 10432 10430 10430 10430 10429 10428 10427 10426 10425 10425 10425 10425 10425 10426 10427 10428 10429 10431 10434 10437 10442 10446 10450 10455 10461 10469 10476 10483 10492 10500 10508 10514 10522 10531 10539 10546 10554 10560 10565 10570 10574 10577
10490 10487 10486 10484 10482 10481 10479 10477 10475 10474 10472 10471 10469 10468 10467 10466 10466 10466 10465 10463 10462 10461 10459 10458 10457 10457 10455 10453 10452 10451 10451 10450 10448 10447 10446 10445 10445 10444 10443 10442 10440 10439 10438 10437 10435 10433 10431 10430 10430 10430 10429 10427 10427 10426 10426 10425 10425 10425 10426 10426 10427 10428 10429 10431 10434 10438 10442 10446 10450 10456 10462 10469 10476 10484 10492 10500 10507 10515 10522 10529 10537 10544 10549 10555 10559 10562 10563
10490 10487 10485 10482 10481 10479 10477 10476 10474 10472 10470 10469 10467 10466 10465 10464 10463 10462 10462 10461 10460 10458 10457 10456 10455 10454 10452 10451 10450 10449 10448 10447 10446 10445 10444 10444 10444 10443 10442 10441 10440 10439 10438 10437 10436 10434 10432 10430 10430 10430 10430 10428 10427 10427 10426 10426 10425 10425 10426 10426 10427 10427 10428 10429 10431 10434 10438 10442 10446 10451 10456 10462 10468 10476 10484 10492 10499 10506 10514 10522 10530 10537 10542 10547 10550 10549 10549
10490 10487 10485 10483 10481 10479 10477 10474 10472 10470 10468 10467 10465 10463 10462 10460 10459 10458 10458 10457 10456 10455 10454 10453 10452 10451 10449 10448 10447 10446 10445 10444 10443 10442 10442 10442 10442 10441 10441 10440 10439 10438 10437 10436 10435 10434 10432 10431 10430 10430 10430 10429 10428 10427 10427 10426 10425 10425 10425 10426 10427 10427 10428 10428 10430 10432 10434 10438 10441 10446 10451 10456 10461 10468 10476 10483 10490 10497 10506 10516 10523 10528 10532 10535 10535 10536 10540
10489 10487 10484 10482 10480 10478 10476 10474 10471 10469 10467 10465 10463 10462 10460 10458 10457 10455 10454 10453 10452 10451 10450 10449 10448 10447 10445 10444 10443 10442 10441 10441 10440 10439 10439 10439 10439 10439 10438 10438 10437 10436 10435 10435 10434 10433 10432 10431 10430 10430 10429 10429 10428 10428 10427 10427 10426 10425 10425 10425 10426 10427 10427 10428 10428 10430 10432 10434 10437 10441 10445 10450 10455 10461 10468 10476 10482 10489 10499 10508 10516 10520 10524 10527 10529 10533 10538
10488 10485 10482 10480 10478 10476 10474 10472 10470 10468 10466 10464 10462 10460 10458 10457 10455 10453 10452 10450 10449 10447 10446 10445 10444 10442 10441 10440 10439 10438 10437 10436 10436 10435 10435 10435 10435 10435 10435 10435 10435 10434 10433 10433 10432 10432 10431 10430 10430 10429 10429 10429 10428 10427 10427 10427 10426 10426 10426 10425 10426 10427 10427 10427 10428 10429 10430 10432 10434 10437 10440 10444 10449 10454 10461 10468 10474 10482 10490 10498 10505 10510 10515 10519 10524 10528 10532
10488 10485 10483 10480 10478 10475 10473 10471 10469 10466 10464 10462 10460 10458 10457 10455 10453 10451 10450 10448 10447 10445 10443 10442 10440 10439 10437 10436 10435 10434 10433 10432 10432 10431 10431 10431 10431 10431 10431 10431 10431 10431 10430 10430 10430 10430 10429 10429 10429 10428 10428 10427 10427 10426 10426 10426 10426 10426 10426 10425 10425 10426 10426 10427 10427 10428 10429 10431 10432 10434 10437 10440 10444 10448 10453 10459 10466 10473 10481 10488 10494 10499 10504 10508 10513 10516 10520
10490 10488 10485 10482 10479 10476 10473 10471 10469 10466 10464 10462 10460 10458 10456 10453 10452 10450 10448 10446 10445 10443 10441 10439 10437 10436 10434 10433 10432 10431 10429 10428 10427 10427 10427 10427 10427 10427 10427 10427 10427 10426 10426 10427 10427 10427 10426 10426 10426 10426 10426 10425 10425 10425 10425 10425 10425 10425 10425 10425 10425 10425 10425 10426 10426 10427 10428 10430 10431 10433 10434 10436 10440 10443 10447 10452 10458 10465 10472 10479 10485 10490 10494 10498 10502 10506 10509
10491 10488 10485 10482 10479 10476 10473 10470 10468 10465 10463 10461 10459 10457 10455 10453 10450 10448 10447 10445 10443 10441 10439 10437 10435 10433 10431 10430 10429 10427 10426 10424 10423 10422 10422 10421 10421 10421 10421 10421 10421 10421 10422 10422 10423 10423 10423 10423 10423 10422 10422 10423 10423 10423 10423 10423 10423 10423 10423 10424 10424 10424 10424 10425 10425 10426 10427 10428 10430 10431 10432 10434 10436 10440 10443 10447 10451 10457 10463 10469 10475 10480 10486 10490 10494 10497 10501
10490 10487 10485 10482 10479 10476 10473 10470 10467 10465 10462 10460 10458 10456 10454 10452 10449 10447 10445 10443 10441 10439 10437 10434 10432 10430 10428 10427 10425 10424 10422 10421 10420 10419 10418 10417 10416 10416 10415 10415 10415 10415 10416 10417 10418 10419 10419 10420 10420 10419 10419 10419 10420 10420 10421 10421 10421 10421 10422 10422 10422 10422 10423 10423 10424 10425 10425 10426 10428 10429 10430 10432 10434 10436 10439 10442 10446 10450 10455 10460 10466 10471 10476 10480 10484 10488 10491